www.pogodaiklimat.ru

АРХИВ ПОГОДЫ в Лос-Анджелесе

Время (UTC), дата Ветер
(напр.,м/с)
 
Видим.   Явления Облачность Т
(С)
Тd
(С)
f
(%)
Тe
(С)
Тes
(С)
Комфортность

P
(гПа)

Po
(гПа)
Тmin
(С)
Tmax
(С)
R
(мм)
SD
(см)
14:53 15.07   4 км  дымка  8/8 180 м  +21.1  +17.2  78  +25  +26  комфорт  1013.6  1009.2         
15:43 15.07 ЮЗ  5 км  мгла  5/5 180 м  +21.1  +17.2  78  +25  +28  комфорт    1008.9         
15:53 15.07 ЮЗ  2 км  мгла  5/5 180 м  +22.2  +17.2  73  +27  +30  душно  1013.4  1008.9         
16:25 15.07 З  5 км  мгла  5/5 180 м  +21.7  +17.2  76  +26  +30  душно    1008.9         
16:53 15.07 З  5 км  мгла  5/5 210 м  +21.7  +17.2  76  +26  +28  душно  1013.4  1008.9  +17.2  +22.2     
17:53 15.07 З  5 км  мгла  5/5 210 м  +21.1  +16.7  76  +25  +28  комфорт  1013.2  1008.9         
18:53 15.07 З  5 км  мгла  5/5 210 м  +20.6  +16.1  75  +23  +27  комфорт  1012.8  1008.2         
19:53 15.07 З  10 км  мгла  5/5 210 м  +21.1  +16.7  76  +25  +30  комфорт  1012.7  1008.2         
20:53 15.07 З  16 км    8/8 270 м  +21.1  +16.1  73  +24  +26  комфорт  1012.3  1007.9         
21:53 15.07 З  16 км    5/5 270 м  +20.6  +16.7  78  +24  +29  комфорт  1011.5  1007.2         
22:38 15.07 З  16 км    8/8 270 м  +20.0  +16.1  78  +23  +24  комфорт    1006.5         
22:53 15.07 З  14 км    8/8 270 м  +19.4  +16.1  81  +21  +23  комфорт  1010.9  1006.5  +19.4  +21.7     
23:39 15.07 З  13 км    8/8 300 м  +18.9  +16.1  84  +20  +21      1005.8         
23:53 15.07 З  14 км    8/8 270 м  +18.9  +16.1  84  +20  +21    1010.4  1005.8         
00:53 16.07 З  13 км    8/8 180 м  +18.9  +16.1  84  +20  +20    1010.1  1005.5         
01:53 16.07 З  11 км    8/8 210 м  +18.3  +16.1  87  +19  +19    1010.1  1005.8         
02:29 16.07 З  13 км    5/5 210 м  +17.8  +16.1  90  +18  +18      1005.5         
02:53 16.07 ЮЗ  13 км    5/5 210 м  +17.8  +16.1  90  +18  +18    1010.3  1005.8         
03:53 16.07 ЮЗ  16 км    2/2 150 м  +17.8  +16.1  90  +18  +18    1010.6  1006.2         
04:53 16.07 нст  16 км    2/2 150 м  +17.8  +16.1  90  +19  +19    1010.6  1006.2  +17.8  +20.0     
05:53 16.07 ЮЗ  16 км    2/2 90 м  +17.2  +16.1  93  +17  +17    1010.6  1006.2         
06:53 16.07 ЮЗ  16 км    2/2 60 м  +17.2  +15.6  90  +17  +17    1010.2  1005.8         
07:53 16.07 нст  14 км    ясно  +17.8  +16.1  90  +18  +18    1009.6  1005.2         
08:53 16.07   16 км    ясно  +17.8  +16.1  90  +18  +18    1009.3  1004.8         
09:53 16.07   16 км    2/2 30 м  +17.2  +16.1  93  +17  +17    1009.2  1004.8         
10:53 16.07   16 км    ясно  +17.2  +15.6  90  +17  +17    1009.2  1004.8  +17.2  +17.8     
11:47 16.07 ЮВ  16 км    5/5 270 м  +17.8  +15.6  87  +19  +19      1005.2         
11:53 16.07 Ю  16 км    5/5 270 м  +17.8  +15.6  87  +19  +19    1009.6  1005.2         
12:48 16.07 З  400 м  туман  5/5 0 м  +17.0  +16.0  94  +17  +17      1005.5         
12:53 16.07 ЮЗ  400 м  туман  8/8 0 м  +16.7  +15.6  93  +16  +16    1010.0  1005.5         
13:53 16.07 ЮЗ  400 м  туман  10/10 0 м  +17.2  +16.7  97  +17  +17    1010.4  1005.8         
14:29 16.07 ЮЗ  800 м  туман  8/8 0 м  +18.3  +16.7  90  +19  +20      1006.2         
14:53 16.07 ЮЗ  1 км  туман поземный, дымка  8/8 0 м  +18.9  +16.7  87  +20  +21    1010.9  1006.5         
15:07 16.07 нст  2 км  туман поземный, дымка  8/8 0 м  +18.9  +16.7  87  +20  +22      1006.5         
15:48 16.07 З  4 км  туман поземный, дымка  8/8 0 м  +20.0  +17.0  83  +23  +24  комфорт    1006.8         
15:53 16.07 З  4 км  туман поземный, дымка  8/8 0 м  +19.4  +16.7  84  +21  +23  комфорт  1011.2  1006.8         
16:27 16.07 З  6 км  туман поземный, дымка  5/5 0 м  +20.6  +16.7  78  +24  +28  комфорт    1006.8         
16:53 16.07 З  6 км  туман поземный, дымка  5/5 0 м  +20.6  +17.2  81  +24  +29  комфорт  1011.4  1006.8  +16.7  +20.6     
17:53 16.07 З  8 км  дымка  5/5 150 м  +21.1  +17.2  78  +25  +30  комфорт  1011.4  1006.8         
18:53 16.07 З  10 км  мгла  2/2 150 м  +22.2  +17.2  73  +27  +37  душно  1011.4  1006.8         
19:53 16.07 З  10 км  мгла  2/2 150 м  +22.2  +17.2  73  +27  +32  душно  1011.2  1006.5         
20:53 16.07 З  11 км    2/2 150 м  +22.2  +17.2  73  +27  +35  душно  1010.9  1006.5         
21:53 16.07 З  11 км    2/2 240 м  +22.2  +16.7  71  +27  +33  душно  1010.5  1005.8         
22:53 16.07 З  16 км    2/2 240 м  +22.2  +17.2  73  +27  +33  душно  1010.0  1005.5  +20.6  +22.8     
23:53 16.07 З  16 км    2/2 240 м  +21.7  +17.2  76  +26  +29  душно  1009.7  1005.2         
00:53 17.07 З  16 км    2/2 240 м  +20.6  +17.2  81  +24  +26  комфорт  1009.6  1005.2         
01:53 17.07 З  16 км    2/2 240 м  +19.4  +17.2  87  +21  +22  комфорт  1009.7  1005.2         
02:53 17.07 З  16 км    2/2 300 м  +18.9  +17.2  90  +20  +20    1010.3  1005.8         

 

Местоположение метеостанции Los Angeles International Airport: широта 33.9381 долгота -118.3889 высота над уровнем моря 38 м.

В архиве по умолчанию представлена погода в Лос-Анджелесе за последние 1-2 суток. Обновление информации о фактической погоде в базе происходит ежечасно! Архивные данные за месяц целиком и за предыдущие месяцы Вы можете получить, выбрав интересующий диапазон дат из раскрывающегося списка и нажав кнопку "Ввод!".

Внимание! Архив погоды МЕТАР в базе сайта в настоящее время начинается c 1 января 2011 г. Нет смысла пытаться выбрать более раннюю дату.

Внимание! Время в таблицах - всемирное. Для получения местного времени необходимо прибавить поправку, которая в Лос-Анджелесе равна -8 ч.

Ветер - указаны скорость ветра в м/с и направление, откуда дует ветер: С - северный, СВ - северо-восточный, В - восточный, ЮВ - юго-восточный, Ю - южный, ЮЗ - юго-западный, З - западный, СЗ - северо-западный.
Видимость - горизонтальная дальность видимости в метрах или километрах. При видимости от 1 до 10 км при отсутствии осадков обычно наблюдается дымка, при ухудшении видимости до 1 км и менее - туман. В сухую погоду видимость может ухудшаться дымом, пылью или мглою.
Атмосферные явления - указаны явления, наблюдавшиеся в указанный момент времени.
Облачность - указаны через наклонную черту верхняя и нижняя облачность в баллах и высота нижней границы облаков в метрах. Внимание: облачность, как и прочие метеорологические величины в США измеряются автоматическими метеостанциями. Указанные значения в баллах носят условный характер и показывают процент времени, в течение которого, в среднем, лазерный луч высотомера отражался от облаков обратно.
T - Температура воздуха - температура, измеренная на высоте 2 м над землей.
Td - Температура точки росы - температура, при понижении до которой содержащийся в воздухе водяной пар достигнет насыщения.
f - Относительная влажность воздуха - влажноcть воздуха, измеренная на высоте 2 м над землей.
Te - Эффективная температура - температура, которую ощущает одетый по сезону человек в тени. Характеристика душности погоды. При расчете учитывается влияние влажности воздуха и скорости ветра на теплоощущения человека.
Tes - Эффективная температура на солнце - температура, которую ощущает человек, с поправкой на солнечный нагрев. Характеристика знойности погоды. Зависит от высоты солнца над горизонтом, облачности и скорости ветра. Ночью, в пасмурную погоду, а также при ветре 12 м/с и более поправка равна нулю.
P - Атмосферное давление - приведенное к уровню моря атмосферное давление.
Po - Атмосферное давление - измеренное на уровне метеостанции атмосферное давление.
Tmin - Минимальная температура - минимум температуры воздуха на высоте 2 м над землей.
Tmax - Максимальная температура - максимум температуры воздуха на высоте 2 м над землей.
R - Количество осадков - Количество выпавших осадков за 3 или 6 часов, мм.
SD - Снежный покров - Высота снежного покрова, см.